Shipshewana, IN (46565)

11:49 PM EST on February 10, 2016 (GMT -0500)
Kirsch Municipal | | Change Station
CLOSE
Current Station
Airport
Location: Sturgis,
Elevation: 925 ft
Nearby Weather Stations

Elev 925 ft 41.82 °N, 85.44 °W | Updated 15 minutes ago

Overcast
Overcast
14 °F
Feels Like 5 °F
N
6
Wind Variable Wind from West

Today
High -- | Low -- °F
--% Chance of Precip.
Yesterday
High -- | Low -- °F
Precip. -- in
Pressure 30.07 in
Visibility 10.0 miles
Clouds Overcast 3800 ft
Windchill 5 °F
Dew Point 9 °F
Humidity 82%
Rainfall 0.00 in
Snow Depth Not available.
7:44 AM 6:08 PM
Waxing Crescent, 9% visible
METAR KIRS 110434Z AUTO 28005KT 10SM OVC038 M10/M13 A3007 RMK AO2 T11021127
Pressure 30.07 in
Visibility 10.0 miles
Clouds Overcast 3800 ft
Windchill 5 °F
Dew Point 9 °F
Humidity 82%
Rainfall 0.00 in
Snow Depth Not available.
7:44 AM 6:08 PM
Waxing Crescent, 9% visible
METAR KIRS 110434Z AUTO 28005KT 10SM OVC038 M10/M13 A3007 RMK AO2 T11021127

10-Day Weather Forecast

Almanac

Astronomy

Feb. 10, 2016 Rise Set
Actual Time
Civil Twilight
Nautical Twilight
Astronomical Twilight
Moon
Length of Visible Light
Length of Day
Tomorrow will be .
, % of the Moon is Illuminated

Today's Extremes

State Highs State Lows

Community

WunderPhotos

Upload Photos

1,892,015 photos uploaded!

WunderBlog® & News

Nearby

Air Quality

  Air Quality AQ Index Pollutant
Not available.

Snow Depth

Station Depth Elevation

Earthquake Activity

City Distance Mag. Time & Date
Minimum magnitude displayed is 2.5.

Coastal Water Temperatures

Place Temperature

Stations

Nearby Weather Stations

Station Location Temp. Windchill Dew Point Humidity Wind Precip. Elev Updated Type
                   

Watches & Warnings

There are currently no watches in effect.